| time (UTC) | temp C | wind direction | speed KPH | gust KPH | rain 1hr cm | rain 24hr cm | rain mn cm | humidity % | barometer mb |
| 20260506073327 | -1 | 72 | 3.2 | 4.8 | 0.00 | 0.00 | 0.00 | 76 | 1013.7 |
| 20260506072824 | -1 | 64 | 3.2 | 3.2 | 0.00 | 0.00 | 0.00 | 76 | 1013.8 |
| 20260506072321 | -1 | 69 | 3.2 | 4.8 | 0.00 | 0.00 | 0.00 | 76 | 1013.8 |
| 20260506071819 | -1 | 71 | 3.2 | 4.8 | 0.00 | 0.00 | 0.00 | 77 | 1013.8 |
| 20260506071317 | -1 | 59 | 3.2 | 3.2 | 0.00 | 0.00 | 0.00 | 76 | 1013.7 |
| 20260506070813 | -1 | 78 | 1.6 | 3.2 | 0.00 | 0.00 | 0.00 | 76 | 1013.8 |
| 20260506070310 | -1 | 65 | 1.6 | 3.2 | 0.00 | 0.00 | 0.00 | 76 | 1013.8 |
| 20260506062248 | 0 | 57 | 3.2 | 3.2 | 0.00 | 0.00 | 0.00 | 70 | 1013.8 |
| 20260506061743 | 0 | 65 | 3.2 | 3.2 | 0.00 | 0.00 | 0.00 | 69 | 1013.9 |
| 20260506061241 | 0 | 69 | 1.6 | 3.2 | 0.00 | 0.00 | 0.00 | 68 | 1014.0 |
| 20260506060739 | 0 | 55 | 0.0 | 3.2 | 0.00 | 0.00 | 0.00 | 68 | 1014.0 |
| 20260506060236 | 0 | 70 | 0.0 | 3.2 | 0.00 | 0.00 | 0.00 | 68 | 1013.9 |
| 20260506051208 | 2 | 44 | 1.6 | 4.8 | 0.00 | 0.00 | 0.00 | 60 | 1013.2 |
| 20260506050707 | 2 | 44 | 3.2 | 3.2 | 0.00 | 0.00 | 0.00 | 60 | 1013.2 |
| 20260506050203 | 2 | 34 | 3.2 | 4.8 | 0.00 | 0.00 | 0.00 | 61 | 1013.2 |
| 20260506044649 | 2 | 40 | 3.2 | 4.8 | 0.00 | 0.00 | 0.00 | 61 | 1013.1 |
| 20260506044145 | 2 | 69 | 3.2 | 3.2 | 0.00 | 0.00 | 0.00 | 60 | 1013.0 |
| 20260506043643 | 3 | 42 | 3.2 | 3.2 | 0.00 | 0.00 | 0.00 | 59 | 1013.4 |
| 20260506043140 | 3 | 72 | 1.6 | 3.2 | 0.00 | 0.00 | 0.00 | 58 | 1013.2 |
| 20260506042639 | 3 | 69 | 3.2 | 3.2 | 0.00 | 0.00 | 0.00 | 60 | 1013.2 |
| 20260506042137 | 3 | 63 | 3.2 | 3.2 | 0.00 | 0.00 | 0.00 | 58 | 1013.1 |
| 20260506041635 | 3 | 39 | 3.2 | 4.8 | 0.00 | 0.00 | 0.00 | 59 | 1013.1 |
| 20260506041131 | 3 | 317 | 0.0 | 4.8 | 0.00 | 0.00 | 0.00 | 60 | 1012.9 |
| 20260506040629 | 3 | 61 | 3.2 | 3.2 | 0.00 | 0.00 | 0.00 | 60 | 1012.9 |
| 20260506040125 | 3 | 33 | 3.2 | 3.2 | 0.00 | 0.00 | 0.00 | 57 | 1012.9 |
| 20260506035622 | 3 | 44 | 3.2 | 4.8 | 0.00 | 0.00 | 0.00 | 59 | 1013.1 |
| 20260506035119 | 3 | 39 | 1.6 | 3.2 | 0.00 | 0.00 | 0.00 | 59 | 1012.8 |
| 20260506034616 | 3 | 39 | 3.2 | 3.2 | 0.00 | 0.00 | 0.00 | 59 | 1012.7 |
| 20260506034113 | 3 | 13 | 0.0 | 3.2 | 0.00 | 0.00 | 0.00 | 57 | 1012.9 |
| 20260506033610 | 3 | 32 | 3.2 | 3.2 | 0.00 | 0.00 | 0.00 | 56 | 1012.9 |
| 20260506033107 | 3 | 24 | 3.2 | 4.8 | 0.00 | 0.00 | 0.00 | 56 | 1012.6 |
| 20260506032605 | 3 | 57 | 3.2 | 4.8 | 0.00 | 0.00 | 0.00 | 59 | 1012.8 |
| 20260506032102 | 3 | 23 | 1.6 | 3.2 | 0.00 | 0.00 | 0.00 | 59 | 1012.8 |
| 20260506031559 | 3 | 77 | 3.2 | 3.2 | 0.00 | 0.00 | 0.00 | 59 | 1012.9 |
| 20260506031055 | 3 | 36 | 3.2 | 3.2 | 0.00 | 0.00 | 0.00 | 57 | 1012.7 |
| 20260506030554 | 3 | 41 | 1.6 | 3.2 | 0.00 | 0.00 | 0.00 | 59 | 1012.7 |
| 20260506030051 | 4 | 43 | 3.2 | 3.2 | 0.00 | 0.00 | 0.00 | 57 | 1012.7 |
| 20260506025548 | 5 | 23 | 1.6 | 4.8 | 0.00 | 0.00 | 0.00 | 55 | 1012.5 |
| 20260506025044 | 5 | 31 | 3.2 | 3.2 | 0.00 | 0.00 | 0.00 | 55 | 1012.7 |
| 20260506024541 | 5 | 45 | 3.2 | 3.2 | 0.00 | 0.00 | 0.00 | 54 | 1012.5 |
| 20260506024037 | 5 | 16 | 1.6 | 4.8 | 0.00 | 0.00 | 0.00 | 54 | 1012.4 |
| 20260506023533 | 5 | 8 | 1.6 | 6.4 | 0.00 | 0.00 | 0.00 | 54 | 1012.5 |
| 20260506023031 | 5 | 327 | 6.4 | 8.0 | 0.00 | 0.00 | 0.00 | 52 | 1012.3 |
| 20260506022528 | 5 | 350 | 4.8 | 4.8 | 0.00 | 0.00 | 0.00 | 51 | 1012.3 |
| 20260506022026 | 5 | 343 | 3.2 | 8.0 | 0.00 | 0.00 | 0.00 | 52 | 1012.0 |
| 20260506021523 | 5 | 12 | 3.2 | 4.8 | 0.00 | 0.00 | 0.00 | 51 | 1012.1 |
| 20260506021020 | 5 | 22 | 3.2 | 8.0 | 0.00 | 0.00 | 0.00 | 52 | 1012.0 |
| 20260506020518 | 5 | 19 | 3.2 | 4.8 | 0.00 | 0.00 | 0.00 | 53 | 1011.8 |
| 20260506020015 | 5 | 42 | 3.2 | 6.4 | 0.00 | 0.00 | 0.00 | 53 | 1011.9 |
| 20260506015512 | 5 | 8 | 0.0 | 3.2 | 0.00 | 0.00 | 0.00 | 52 | 1011.7 |
| 20260506015009 | 6 | 22 | 1.6 | 4.8 | 0.00 | 0.00 | 0.00 | 52 | 1011.6 |
| 20260506014507 | 6 | 41 | 4.8 | 4.8 | 0.00 | 0.00 | 0.00 | 52 | 1011.6 |
| 20260506014002 | 6 | 14 | 1.6 | 4.8 | 0.00 | 0.00 | 0.00 | 50 | 1011.5 |
| 20260506013500 | 6 | 31 | 3.2 | 3.2 | 0.00 | 0.00 | 0.00 | 50 | 1011.6 |
| 20260506012956 | 6 | 29 | 3.2 | 6.4 | 0.00 | 0.00 | 0.00 | 49 | 1011.2 |
| 20260506012453 | 6 | 31 | 3.2 | 4.8 | 0.00 | 0.00 | 0.00 | 49 | 1011.2 |
| 20260506011950 | 6 | 357 | 3.2 | 4.8 | 0.00 | 0.00 | 0.00 | 48 | 1011.3 |
| 20260506011447 | 7 | 43 | 1.6 | 4.8 | 0.00 | 0.00 | 0.00 | 48 | 1011.3 |
| 20260506010944 | 7 | 25 | 3.2 | 8.0 | 0.00 | 0.00 | 0.00 | 46 | 1011.0 |
| 20260506010443 | 7 | 318 | 3.2 | 4.8 | 0.00 | 0.00 | 0.00 | 46 | 1011.2 |
| 20260506005939 | 7 | 38 | 3.2 | 6.4 | 0.00 | 0.00 | 0.00 | 46 | 1011.1 |
| 20260506005438 | 7 | 63 | 3.2 | 4.8 | 0.00 | 0.00 | 0.00 | 47 | 1011.1 |
| 20260506004938 | 7 | 32 | 3.2 | 4.8 | 0.00 | 0.00 | 0.00 | 47 | 1010.9 |
| 20260506004436 | 7 | 102 | 0.0 | 6.4 | 0.00 | 0.00 | 0.00 | 47 | 1011.0 |
| 20260506003932 | 7 | 335 | 3.2 | 4.8 | 0.00 | 0.00 | 0.00 | 45 | 1010.8 |
| 20260506003429 | 8 | 41 | 1.6 | 6.4 | 0.00 | 0.00 | 0.00 | 46 | 1010.8 |
| 20260506002925 | 8 | 31 | 3.2 | 3.2 | 0.00 | 0.00 | 0.00 | 46 | 1010.6 |
| 20260506002421 | 8 | 29 | 3.2 | 6.4 | 0.00 | 0.00 | 0.00 | 44 | 1010.4 |
| 20260506001916 | 8 | 198 | 0.0 | 4.8 | 0.00 | 0.00 | 0.00 | 44 | 1010.3 |
| 20260506001414 | 8 | 97 | 1.6 | 6.4 | 0.00 | 0.00 | 0.00 | 45 | 1010.4 |
| 20260506000911 | 8 | 26 | 3.2 | 3.2 | 0.00 | 0.00 | 0.00 | 45 | 1010.3 |
| 20260506000409 | 8 | 88 | 1.6 | 3.2 | 0.00 | 0.00 | 0.00 | 45 | 1010.5 |
| 20260505235905 | 8 | 25 | 4.8 | 6.4 | 0.00 | 0.00 | 0.00 | 44 | 1010.3 |
| 20260505235403 | 8 | 51 | 1.6 | 4.8 | 0.00 | 0.00 | 0.00 | 43 | 1010.3 |
| 20260505234900 | 8 | 6 | 3.2 | 4.8 | 0.00 | 0.00 | 0.00 | 42 | 1010.4 |
| 20260505234358 | 8 | 48 | 1.6 | 6.4 | 0.00 | 0.00 | 0.00 | 43 | 1010.2 |
| 20260505233854 | 8 | 29 | 1.6 | 4.8 | 0.00 | 0.00 | 0.00 | 43 | 1010.3 |
| 20260505233352 | 8 | 107 | 3.2 | 6.4 | 0.00 | 0.00 | 0.00 | 44 | 1010.2 |
| 20260505232849 | 8 | 10 | 3.2 | 6.4 | 0.00 | 0.00 | 0.00 | 42 | 1010.1 |
| 20260505232347 | 8 | 0 | 0.0 | 4.8 | 0.00 | 0.00 | 0.00 | 40 | 1010.3 |
| 20260505231843 | 9 | 353 | 0.0 | 4.8 | 0.00 | 0.00 | 0.00 | 41 | 1010.2 |
| 20260505231341 | 8 | 41 | 3.2 | 4.8 | 0.00 | 0.00 | 0.00 | 42 | 1010.2 |
| 20260505230839 | 8 | 254 | 0.0 | 4.8 | 0.00 | 0.00 | 0.00 | 42 | 1010.0 |
| 20260505230336 | 8 | 128 | 3.2 | 4.8 | 0.00 | 0.00 | 0.00 | 43 | 1010.0 |
| 20260505225832 | 9 | 322 | 0.0 | 6.4 | 0.00 | 0.00 | 0.00 | 41 | 1010.1 |
| 20260505225330 | 8 | 308 | 0.0 | 6.4 | 0.00 | 0.00 | 0.00 | 43 | 1010.3 |
| 20260505224825 | 9 | 11 | 3.2 | 12.9 | 0.00 | 0.00 | 0.00 | 41 | 1010.2 |
| 20260505224323 | 9 | 48 | 1.6 | 4.8 | 0.00 | 0.00 | 0.00 | 42 | 1010.2 |
| 20260505223820 | 9 | 14 | 1.6 | 4.8 | 0.00 | 0.00 | 0.00 | 42 | 1010.1 |
| 20260505223317 | 9 | 160 | 1.6 | 6.4 | 0.00 | 0.00 | 0.00 | 42 | 1010.1 |
| 20260505222812 | 9 | 51 | 1.6 | 8.0 | 0.00 | 0.00 | 0.00 | 39 | 1010.0 |
| 20260505222309 | 9 | 77 | 1.6 | 4.8 | 0.00 | 0.00 | 0.00 | 41 | 1010.1 |
| 20260505221806 | 9 | 33 | 3.2 | 6.4 | 0.00 | 0.00 | 0.00 | 40 | 1010.1 |
| 20260505221302 | 10 | 350 | 3.2 | 3.2 | 0.00 | 0.00 | 0.00 | 41 | 1010.0 |
| 20260505220800 | 10 | 10 | 0.0 | 4.8 | 0.00 | 0.00 | 0.00 | 39 | 1010.0 |
| 20260505220257 | 10 | 213 | 3.2 | 9.7 | 0.00 | 0.00 | 0.00 | 41 | 1010.1 |
| 20260505215755 | 9 | 17 | 3.2 | 6.4 | 0.00 | 0.00 | 0.00 | 42 | 1010.2 |
| 20260505215252 | 9 | 296 | 3.2 | 6.4 | 0.00 | 0.00 | 0.00 | 42 | 1010.0 |
| 20260505214750 | 9 | 10 | 0.0 | 6.4 | 0.00 | 0.00 | 0.00 | 41 | 1010.3 |
| 20260505214247 | 9 | 344 | 3.2 | 6.4 | 0.00 | 0.00 | 0.00 | 40 | 1010.4 |
| 20260505213744 | 9 | 25 | 4.8 | 6.4 | 0.00 | 0.00 | 0.00 | 41 | 1010.3 |
| 20260505213242 | 9 | 27 | 4.8 | 4.8 | 0.00 | 0.00 | 0.00 | 41 | 1010.3 |
| 20260505212737 | 10 | 27 | 3.2 | 4.8 | 0.00 | 0.00 | 0.00 | 40 | 1010.2 |
| 20260505212235 | 10 | 23 | 0.0 | 3.2 | 0.00 | 0.00 | 0.00 | 41 | 1010.2 |
| 20260505211732 | 9 | 39 | 0.0 | 4.8 | 0.00 | 0.00 | 0.00 | 42 | 1010.2 |
| 20260505211229 | 10 | 22 | 0.0 | 4.8 | 0.00 | 0.00 | 0.00 | 41 | 1010.3 |
| 20260505210725 | 10 | 340 | 3.2 | 6.4 | 0.00 | 0.00 | 0.00 | 39 | 1010.3 |
| 20260505210222 | 9 | 359 | 3.2 | 3.2 | 0.00 | 0.00 | 0.00 | 40 | 1010.5 |
| 20260505205720 | 10 | 24 | 3.2 | 8.0 | 0.00 | 0.00 | 0.00 | 39 | 1010.4 |
| 20260505205218 | 10 | 19 | 4.8 | 4.8 | 0.00 | 0.00 | 0.00 | 40 | 1010.4 |
| 20260505204709 | 10 | 344 | 3.2 | 4.8 | 0.00 | 0.00 | 0.00 | 41 | 1010.4 |
| 20260505204207 | 10 | 149 | 3.2 | 6.4 | 0.00 | 0.00 | 0.00 | 39 | 1010.3 |
| 20260505203704 | 11 | 359 | 1.6 | 6.4 | 0.00 | 0.00 | 0.00 | 41 | 1010.5 |
| 20260505203200 | 10 | 316 | 3.2 | 6.4 | 0.00 | 0.00 | 0.00 | 40 | 1010.4 |
| 20260505202655 | 12 | 248 | 3.2 | 9.7 | 0.00 | 0.00 | 0.00 | 39 | 1010.6 |
| 20260505202153 | 10 | 345 | 0.0 | 4.8 | 0.00 | 0.00 | 0.00 | 41 | 1010.5 |
| 20260505201649 | 11 | 330 | 3.2 | 9.7 | 0.00 | 0.00 | 0.00 | 38 | 1010.6 |
| 20260505201147 | 10 | 346 | 6.4 | 9.7 | 0.00 | 0.00 | 0.00 | 41 | 1010.8 |
| 20260505200645 | 10 | 196 | 0.0 | 8.0 | 0.00 | 0.00 | 0.00 | 40 | 1010.3 |
| 20260505200141 | 10 | 0 | 1.6 | 8.0 | 0.00 | 0.00 | 0.00 | 40 | 1010.5 |
| 20260505195637 | 10 | 28 | 3.2 | 4.8 | 0.00 | 0.00 | 0.00 | 41 | 1010.5 |
| 20260505195134 | 9 | 89 | 1.6 | 4.8 | 0.00 | 0.00 | 0.00 | 40 | 1010.5 |
| 20260505194632 | 10 | 352 | 3.2 | 6.4 | 0.00 | 0.00 | 0.00 | 39 | 1010.4 |
| 20260505194128 | 10 | 59 | 0.0 | 6.4 | 0.00 | 0.00 | 0.00 | 39 | 1010.3 |
| 20260505193625 | 10 | 335 | 3.2 | 8.0 | 0.00 | 0.00 | 0.00 | 40 | 1010.2 |
| 20260505193122 | 9 | 43 | 1.6 | 4.8 | 0.00 | 0.00 | 0.00 | 39 | 1010.6 |
| 20260505192621 | 10 | 330 | 1.6 | 4.8 | 0.00 | 0.00 | 0.00 | 41 | 1010.4 |
| 20260505192117 | 10 | 59 | 3.2 | 3.2 | 0.00 | 0.00 | 0.00 | 42 | 1010.6 |
| 20260505191616 | 9 | 341 | 3.2 | 4.8 | 0.00 | 0.00 | 0.00 | 41 | 1010.6 |
| 20260505191113 | 9 | 18 | 0.0 | 8.0 | 0.00 | 0.00 | 0.00 | 43 | 1010.4 |
| 20260505190608 | 9 | 342 | 3.2 | 11.3 | 0.00 | 0.00 | 0.00 | 42 | 1010.5 |
| 20260505190103 | 10 | 7 | 3.2 | 6.4 | 0.00 | 0.00 | 0.00 | 40 | 1010.5 |
| 20260505185600 | 9 | 0 | 0.0 | 6.4 | 0.00 | 0.00 | 0.00 | 40 | 1010.5 |
| 20260505185057 | 10 | 48 | 4.8 | 8.0 | 0.00 | 0.00 | 0.00 | 42 | 1010.5 |
| 20260505184554 | 9 | 12 | 4.8 | 6.4 | 0.00 | 0.00 | 0.00 | 40 | 1010.6 |
| 20260505184051 | 9 | 310 | 4.8 | 6.4 | 0.00 | 0.00 | 0.00 | 40 | 1010.5 |
| 20260505183547 | 9 | 347 | 0.0 | 4.8 | 0.00 | 0.00 | 0.00 | 41 | 1010.6 |
| 20260505183045 | 9 | 0 | 3.2 | 6.4 | 0.00 | 0.00 | 0.00 | 41 | 1010.5 |
| 20260505182541 | 9 | 121 | 3.2 | 6.4 | 0.00 | 0.00 | 0.00 | 42 | 1010.6 |
| 20260505182037 | 9 | 126 | 1.6 | 8.0 | 0.00 | 0.00 | 0.00 | 44 | 1010.4 |
| 20260505181534 | 8 | 350 | 3.2 | 6.4 | 0.00 | 0.00 | 0.00 | 39 | 1010.5 |
| 20260505181032 | 8 | 155 | 4.8 | 6.4 | 0.00 | 0.00 | 0.00 | 44 | 1010.4 |
| 20260505180527 | 9 | 166 | 3.2 | 4.8 | 0.00 | 0.00 | 0.00 | 42 | 1010.3 |
| 20260505180026 | 8 | 20 | 4.8 | 11.3 | 0.00 | 0.00 | 0.00 | 43 | 1010.6 |
| 20260505175526 | 8 | 348 | 1.6 | 6.4 | 0.00 | 0.00 | 0.00 | 41 | 1010.5 |
| 20260505175023 | 8 | 131 | 6.4 | 6.4 | 0.00 | 0.00 | 0.00 | 40 | 1010.5 |
| 20260505174520 | 9 | 21 | 1.6 | 4.8 | 0.00 | 0.00 | 0.00 | 40 | 1010.5 |
| 20260505174016 | 10 | 11 | 3.2 | 4.8 | 0.00 | 0.00 | 0.00 | 43 | 1010.8 |
| 20260505173513 | 8 | 321 | 0.0 | 12.9 | 0.00 | 0.00 | 0.00 | 42 | 1010.5 |
| 20260505173010 | 8 | 14 | 4.8 | 9.7 | 0.00 | 0.00 | 0.00 | 41 | 1010.6 |
| 20260505172508 | 9 | 339 | 3.2 | 6.4 | 0.00 | 0.00 | 0.00 | 39 | 1010.5 |
| 20260505172008 | 9 | 331 | 3.2 | 4.8 | 0.00 | 0.00 | 0.00 | 39 | 1010.4 |
| 20260505171504 | 8 | 17 | 1.6 | 4.8 | 0.00 | 0.00 | 0.00 | 41 | 1010.6 |
| 20260505171001 | 10 | 36 | 0.0 | 8.0 | 0.00 | 0.00 | 0.00 | 39 | 1010.5 |
| 20260505170458 | 10 | 33 | 4.8 | 8.0 | 0.00 | 0.00 | 0.00 | 40 | 1010.6 |
| 20260505165953 | 8 | 73 | 4.8 | 9.7 | 0.00 | 0.00 | 0.00 | 41 | 1010.8 |
| 20260505165449 | 8 | 99 | 1.6 | 4.8 | 0.00 | 0.00 | 0.00 | 42 | 1010.5 |
| 20260505164945 | 8 | 348 | 4.8 | 6.4 | 0.00 | 0.00 | 0.00 | 42 | 1010.8 |
| 20260505164442 | 8 | 185 | 1.6 | 4.8 | 0.00 | 0.00 | 0.00 | 44 | 1011.0 |
| 20260505163940 | 8 | 126 | 0.0 | 8.0 | 0.00 | 0.00 | 0.00 | 41 | 1010.4 |
| 20260505163438 | 8 | 342 | 3.2 | 6.4 | 0.00 | 0.00 | 0.00 | 41 | 1010.5 |
| 20260505162937 | 10 | 127 | 0.0 | 8.0 | 0.00 | 0.00 | 0.00 | 39 | 1010.8 |
| 20260505162433 | 9 | 176 | 3.2 | 6.4 | 0.00 | 0.00 | 0.00 | 43 | 1010.9 |
| 20260505161930 | 8 | 187 | 0.0 | 6.4 | 0.00 | 0.00 | 0.00 | 45 | 1010.6 |
| 20260505161426 | 9 | 86 | 4.8 | 6.4 | 0.00 | 0.00 | 0.00 | 42 | 1010.6 |
| 20260505160924 | 8 | 275 | 0.0 | 8.0 | 0.00 | 0.00 | 0.00 | 40 | 1010.5 |
| 20260505160422 | 7 | 60 | 4.8 | 6.4 | 0.00 | 0.00 | 0.00 | 43 | 1010.8 |
| 20260505152858 | 7 | 280 | 0.0 | 4.8 | 0.00 | 0.00 | 0.00 | 42 | 1010.8 |
| 20260505152355 | 8 | 257 | 0.0 | 4.8 | 0.00 | 0.00 | 0.00 | 42 | 1010.5 |
| 20260505151855 | 8 | 326 | 3.2 | 6.4 | 0.00 | 0.00 | 0.00 | 43 | 1010.4 |
| 20260505151352 | 8 | 13 | 3.2 | 4.8 | 0.00 | 0.00 | 0.00 | 45 | 1010.5 |
| 20260505150849 | 8 | 14 | 3.2 | 6.4 | 0.00 | 0.00 | 0.00 | 45 | 1010.5 |
| 20260505150346 | 8 | 11 | 3.2 | 8.0 | 0.00 | 0.00 | 0.00 | 44 | 1010.5 |
| 20260505140310 | 6 | 1 | 4.8 | 6.4 | 0.00 | 0.00 | 0.00 | 48 | 1010.1 |
| 20260505130234 | 5 | 300 | 3.2 | 4.8 | 0.00 | 0.00 | 0.00 | 49 | 1009.4 |
| 20260505124724 | 4 | 354 | 3.2 | 9.7 | 0.00 | 0.00 | 0.00 | 51 | 1009.3 |
| 20260505124221 | 4 | 314 | 3.2 | 6.4 | 0.00 | 0.00 | 0.00 | 52 | 1009.2 |
| 20260505123717 | 5 | 24 | 3.2 | 6.4 | 0.00 | 0.00 | 0.00 | 54 | 1009.2 |
| 20260505123214 | 4 | 35 | 6.4 | 8.0 | 0.00 | 0.00 | 0.00 | 52 | 1009.1 |
| 20260505122710 | 4 | 358 | 3.2 | 6.4 | 0.00 | 0.00 | 0.00 | 54 | 1009.2 |
| 20260505122208 | 3 | 11 | 3.2 | 4.8 | 0.00 | 0.00 | 0.00 | 57 | 1009.0 |
| 20260505121704 | 3 | 37 | 4.8 | 6.4 | 0.00 | 0.00 | 0.00 | 58 | 1009.2 |
| 20260505121201 | 3 | 30 | 3.2 | 4.8 | 0.00 | 0.00 | 0.00 | 60 | 1009.0 |
| 20260505120657 | 2 | 31 | 3.2 | 4.8 | 0.00 | 0.00 | 0.00 | 62 | 1008.8 |
| 20260505120154 | 2 | 2 | 3.2 | 3.2 | 0.00 | 0.00 | 0.00 | 62 | 1008.6 |
| 20260505115653 | 2 | 343 | 0.0 | 4.8 | 0.00 | 0.00 | 0.00 | 64 | 1008.7 |
| 20260505115151 | 2 | 13 | 1.6 | 4.8 | 0.00 | 0.00 | 0.00 | 65 | 1008.4 |
| 20260505114648 | 2 | 335 | 1.6 | 4.8 | 0.00 | 0.00 | 0.00 | 66 | 1008.5 |
| 20260505114144 | 2 | 26 | 3.2 | 4.8 | 0.00 | 0.00 | 0.00 | 65 | 1008.5 |
| 20260505113640 | 2 | 31 | 3.2 | 4.8 | 0.00 | 0.00 | 0.00 | 65 | 1008.5 |
| 20260505113137 | 2 | 5 | 3.2 | 4.8 | 0.00 | 0.00 | 0.00 | 66 | 1008.4 |
| 20260505112633 | 2 | 26 | 3.2 | 4.8 | 0.00 | 0.00 | 0.00 | 66 | 1008.3 |
| 20260505112132 | 2 | 35 | 4.8 | 4.8 | 0.00 | 0.00 | 0.00 | 66 | 1008.2 |
| 20260505111631 | 2 | 32 | 4.8 | 4.8 | 0.00 | 0.00 | 0.00 | 68 | 1008.3 |
| 20260505111127 | 2 | 341 | 4.8 | 4.8 | 0.00 | 0.00 | 0.00 | 69 | 1008.1 |
| 20260505110624 | 2 | 0 | 3.2 | 4.8 | 0.00 | 0.00 | 0.00 | 70 | 1008.0 |
| 20260505110121 | 2 | 85 | 0.0 | 4.8 | 0.00 | 0.00 | 0.00 | 69 | 1008.1 |
| 20260505102056 | 2 | 37 | 4.8 | 4.8 | 0.00 | 0.00 | 0.00 | 69 | 1007.8 |
| 20260505101555 | 2 | 24 | 0.0 | 6.4 | 0.00 | 0.00 | 0.00 | 67 | 1007.9 |
| 20260505101051 | 2 | 13 | 1.6 | 3.2 | 0.00 | 0.00 | 0.00 | 67 | 1007.8 |
| 20260505100548 | 2 | 11 | 3.2 | 3.2 | 0.00 | 0.00 | 0.00 | 67 | 1008.0 |
| 20260505100045 | 2 | 66 | 1.6 | 3.2 | 0.00 | 0.00 | 0.00 | 67 | 1007.9 |
| 20260505095541 | 2 | 327 | 0.0 | 3.2 | 0.00 | 0.00 | 0.00 | 69 | 1007.9 |
| 20260505095037 | 2 | 42 | 3.2 | 3.2 | 0.00 | 0.00 | 0.00 | 67 | 1007.8 |
| 20260505094534 | 2 | 49 | 0.0 | 3.2 | 0.00 | 0.00 | 0.00 | 68 | 1008.0 |
| 20260505094030 | 3 | 33 | 0.0 | 4.8 | 0.00 | 0.00 | 0.00 | 66 | 1007.8 |
| 20260505093527 | 3 | 74 | 0.0 | 3.2 | 0.00 | 0.00 | 0.00 | 66 | 1007.9 |
| 20260505093024 | 3 | 81 | 3.2 | 3.2 | 0.00 | 0.00 | 0.00 | 66 | 1007.8 |
| 20260505092521 | 3 | 320 | 1.6 | 3.2 | 0.00 | 0.00 | 0.00 | 65 | 1007.7 |
| 20260505092020 | 3 | 327 | 1.6 | 3.2 | 0.00 | 0.00 | 0.00 | 65 | 1007.7 |
| 20260505091516 | 3 | 37 | 1.6 | 3.2 | 0.00 | 0.00 | 0.00 | 66 | 1007.7 |
| 20260505091014 | 3 | 72 | 1.6 | 6.4 | 0.00 | 0.00 | 0.00 | 65 | 1007.5 |
| 20260505090512 | 3 | 35 | 3.2 | 3.2 | 0.00 | 0.00 | 0.00 | 64 | 1007.4 |
| 20260505090010 | 3 | 52 | 3.2 | 4.8 | 0.00 | 0.00 | 0.00 | 63 | 1007.3 |
| 20260505085508 | 3 | 64 | 3.2 | 4.8 | 0.00 | 0.00 | 0.00 | 64 | 1007.5 |
| 20260505085006 | 3 | 32 | 0.0 | 4.8 | 0.00 | 0.00 | 0.00 | 62 | 1007.2 |
| 20260505084503 | 3 | 74 | 6.4 | 6.4 | 0.00 | 0.00 | 0.00 | 62 | 1007.2 |
| 20260505084001 | 3 | 181 | 1.6 | 6.4 | 0.00 | 0.00 | 0.00 | 62 | 1007.1 |
| 20260505083458 | 3 | 34 | 3.2 | 4.8 | 0.00 | 0.00 | 0.00 | 63 | 1007.2 |
| 20260505082954 | 3 | 60 | 0.0 | 1.6 | 0.00 | 0.00 | 0.00 | 62 | 1007.0 |
| 20260505082450 | 3 | 55 | 1.6 | 3.2 | 0.00 | 0.00 | 0.00 | 62 | 1007.0 |
| 20260505081947 | 3 | 45 | 1.6 | 3.2 | 0.00 | 0.00 | 0.00 | 61 | 1006.6 |
| 20260505081444 | 4 | 78 | 1.6 | 4.8 | 0.00 | 0.00 | 0.00 | 62 | 1006.5 |
| 20260505080940 | 4 | 61 | 1.6 | 3.2 | 0.00 | 0.00 | 0.00 | 60 | 1006.5 |
| 20260505080436 | 4 | 27 | 3.2 | 6.4 | 0.00 | 0.00 | 0.00 | 60 | 1006.4 |
| 20260505075932 | 4 | 27 | 1.6 | 4.8 | 0.00 | 0.00 | 0.00 | 60 | 1006.5 |
| 20260505075429 | 4 | 321 | 3.2 | 8.0 | 0.00 | 0.00 | 0.00 | 59 | 1006.6 |
| 20260505074927 | 5 | 70 | 0.0 | 3.2 | 0.00 | 0.00 | 0.00 | 59 | 1006.7 |